STARLINK-35406, 65795

Orbit data source: Space-Track

STARLINK-35406, 65795 is a payload satellite owned by SpaceX/Seattle (US) in SSO that was launched on Fri, 26 Sep 2025 UTC via an FALCON 9 launch vehicle from the Air Force Western Test Range (AFWTR). Payload-class satellites include a variety of spacecraft equipped with specific instruments for various scientific and technological missions. These include communications satellites like Starlink; space stations such as the ISS; scientific satellites like the Hubble; Earth observation satellites from companies like Planet Labs, Umbra, and HawkEye 360; GPS; miniature CubeSats for education and research; and military/defense satellites.

Loading next visibility...
Identifier
65795, 2025-218E
Orbit
SSO
Country
Flag of USUS
Related business
Manufacturer
SpaceX/Seattle
Mission
Operational Commercial Communications
Bus & Motor
STARLINK V2MO, Unknown motor
Mass
575 kg wet, ~530 kg dry
Launch date (UTC)
2025-09-26 (5 months ago)
Launch vehicle
FALCON 9
Launch site
Air Force Western Test Range (AFWTR)
Object type
Payload
Rocket body
Debris
Shape & HBR
Box + 2 Pan, 17.7 m
Radar Cross Section
36.964 m²

Expand to show TLE details & history
Last TLE update: 10 hours ago

TLE from 10 hours ago
0 STARLINK-35406
1 65795U 25218E   26062.61366506  .00005793  00000-0  40533-3 0  9991
2 65795  97.6035 286.9372 0003320  77.0817 283.0780 15.05651323 24059
Epoch: 2026-03-03T14:43Z
TLE epoch observation values (Epoch: 2026-03-03T14:43:40.661Z)
Latitude
-0.00005°
Longitude
-95.37242°
Altitude
552.052 km
Speed
7.586 km/s
True Right ascension
19h 07m 44s
True Declination
0° 00' 00"
Sunlit
Object was in daylight at epoch
Visualization orbit readout
Latitude
Unknown
Longitude
Unknown
Altitude
Unknown
Speed
Unknown
Apparent Right ascension
Unknown
Apparent Declination
Unknown
Sunlit
N/A
Visualization observer readout
Local Sidereal Time
04:25:36
Azimuth
Unknown
Elevation
Unknown
Doppler factor
Unknown
Orbital elements
Apogee altitude
548.8 km
Perigee altitude
544.202 km
Semi-major axis
6,924.638 km
Eccentricity
0.00033
Inclination
97.6035°
RAAN
286.9372°
Arg. of periapsis
77.0817°
True anomaly
283.04094°
Mean anomaly
283.078°
Eccentric anomaly
283.05947°
Mean motion
3.76658 °/min
Orbital period
95.58 mins
BSTAR
0.00040533
Loading maneuver chart data...
Computing Atmospheric mass density...
Loading historical data...
Loading historical data...
Loading historical data...
Loading historical data...
Loading historical data...
Loading historical data...
Loading historical data...

Documentation

Showing up to 5 results
|